Regional Weather Roundup
Issued by NWS Charleston, SC

Current Version | Previous Version | Graphics & Text | Print | Product List | Glossary On
Versions: 1 2 3 4 5 6 7 8 9 10 11 12 13 14 15 16 17 18 19 20 21 22 23 24 25 26 27 28 29 30 31 32 33 34 35 36 37 38 39 40 41 42 43 44 45 46 47 48 49 50
355
ASUS42 KCHS 232328
RWRCHS

REGIONAL WEATHER ROUNDUP
NATIONAL WEATHER SERVICE CHARLESTON SC
700 PM EDT SAT JUL 23 2016

NOTE: "FAIR" INDICATES FEW OR NO CLOUDS BELOW 12,000 FEET WITH NO
SIGNIFICANT WEATHER AND/OR OBSTRUCTIONS TO VISIBILITY.

NOT ALL STATIONS ARE QUALITY CONTROLLED. USE DATA WITH CAUTION...
ESPECIALLY DEWPOINT OBSERVATIONS.

SCZ027-030-031-034>040-042>050-240000-
...SOUTHEAST SOUTH CAROLINA...

CITY           SKY/WX    TMP DP  RH WIND       PRES   REMARKS
N CHARLESTON   MOSUNNY   89  72  56 S13       29.97R HX  96
WATERFRONT PRK   N/A     88  76  67 S7        29.95S HX  99
MOUNT PLEASANT FAIR      88  75  66 S8        29.97S HX  97
JOHNS ISLAND   FAIR      88  77  70 S12       29.97S HX 100
PINOPOLIS        N/A     91  73  55 S6        29.88R HX 100
MONCKS CORNER  FAIR      84  72  65 S7        29.96S
SUMMERVILLE    FAIR      88  75  66 S8        29.97S HX  97
BEAUFORT MCAS  MOSUNNY   92  72  51 S7        29.97S HX  99
BEAUFORT ARPT  FAIR      88  73  62 S9        29.97R HAZE    HX  96
HILTON HEAD IS MOSUNNY   93  75  55 S8        29.98F HX 104
WALTERBORO     MOCLDY    90  73  58 SE8       29.97R HX  98
ALLENDALE      FAIR      93  70  46 CALM      29.95R HX  99

...SOUTHERN MIDLANDS AND PEE DEE...

CITY           SKY/WX    TMP DP  RH WIND       PRES   REMARKS
GEORGETOWN     FAIR      84  75  74 S8        29.98S HX  92
KINGSTREE      FAIR      88  72  58 S7        29.95S HX  94
ORANGEBURG     PTSUNNY   91  74  57 CALM      29.96R HX 100
BARNWELL       NOT AVBL
AIKEN          FAIR      86  73  66 N3        30.00R HX  93
MANNING        FAIR      90  73  58 S3        29.95S HX  98
COLUMBIA       PTSUNNY   87  70  56 S6        29.96R HX  92
SUMTER         MOSUNNY   87  71  60 VRB5      29.94S HAZE    HX  92
FLORENCE       MOSUNNY   90  76  63 S10       29.95R HX 101
MYRTLE BEACH   MOSUNNY   84  72  65 S15       29.98F
N MYRTLE BEACH PTSUNNY   80  74  81 S7        29.96F

$$

GAZ063-065-086>088-099>101-113>116-118-119-134>141-150-240000-
...SOUTHEAST GEORGIA...

CITY           SKY/WX    TMP DP  RH WIND       PRES   REMARKS
SAVANNAH ARPT  PTSUNNY   86  71  60 SE7       29.96F HX  91
HUNTER AAF     MOSUNNY   87  78  74 SE6       29.95S HX  98
FORT STEWART   MOSUNNY   91  72  53 SE7       29.93S HX  98
STATESBORO     PTSUNNY   85  70  60 W8        29.96S HX  90
SYLVANIA       NOT AVBL
CLAXTON        FAIR      85  73  67 CALM      29.96F HX  92

...CSRA...CENTRAL AND FAR SOUTHEAST GEORGIA...

CITY           SKY/WX    TMP DP  RH WIND       PRES   REMARKS
THOMSON        NOT AVBL
AUGUSTA-BUSH   MOSUNNY   93  72  50 N9        29.94S HX 101
AUGUSTA-DANIEL MOSUNNY   93  71  48 N3        29.97S HX 100
SWAINSBORO     FAIR      82  72  69 E3        29.98F
VIDALIA        LGT RAIN  88  70  55 W6        29.98F HX  92
EASTMAN        FAIR      79  66  64 S7        30.01R
HAZLEHURST     MOCLDY    82  76  82 CALM      29.97F
ALMA           CLOUDY    86  71  60 N7        29.97R HX  91
WAYCROSS       SUNNY     96  70  42 S6        29.96S HX 102
JESUP          FAIR      91  77  62 S5        29.96S HX 105
BAXLEY         PTSUNNY   81  77  89 NW7       29.98F
BRUNSWICK      SUNNY     90  73  58 SE9       29.98S HX  98
SAINT SIMONS   SUNNY     88  71  57 SE10G25   29.98R HX  94

$$

SCZ027-028-034-036>038-045-046-048>050-GAZ119-141-240000-
...LAKE AND SUPPLEMENTAL COASTAL OBSERVATIONS...

STATION/POSITION TIME  TEMP    WIND        PRES    WAVE   SWELL
                       AIR SEA DIR/SP/G            HT/PER HT/PER/DIR
                 (UTC) (F)     (DEG/KT/KT) (MB)    (FT/S) (FT/S/D)
WINYAH BAY       2245   87     210/  9     1014.0F
LAKE MURRAY      2200   85     100/  3/  4 1013.9F
ACE BASIN NERRS  2200   88     170/  1     1015.0S
FORT PULASKI     2200      88                N/A
SAPELO ISLAND    2300   90     160/  9     1015.0S

$$

ANZ835-935-AMZ111-154-330-350-352-354-370-450-454-472-240000-
...C-MAN AND BUOY OBSERVATIONS...

STATION/POSITION TIME  TEMP    WIND        PRES    WAVE   SWELL
                       AIR SEA DIR/SP/G            HT/PER HT/PER/DIR
                 (UTC) (F)     (DEG/KT/KT) (MB)    (FT/S) (FT/S/D)
BUOY 41004       2250   85 86  190/ 10/ 12 1014.9F   2/ 8   2/120/ 8
BUOY 41008       2250   86 88  150/ 12/ 14 1015.2F   2/ 9   2/ 90/ 9
FOLLY BEACH CMAN 2300   86     190/ 12/ 14 1015.4R
CAPERS NEARSHORE 2208   85 85  190/ 12/ 16 1015.0F
FRIPP NEARSHORE  2308   86 87  190/ 12/ 16 1014.4S


STATION/POSITION TIME  TEMP    WIND        PRES    WAVE   SWELL
                       AIR SEA DIR/SP/G            HT/PER HT/PER/DIR
                 (UTC) (F)     (DEG/KT/KT) (MB)    (FT/S) (FT/S/D)
5E ST. MARYS GA  2301      87                N/A     2/ 8
FRYING PAN BUOY  2300   85 86  190/  6/  8 1015.0S
BUOY 41025       2250   85 86  220/ 14/ 17 1014.8S   3/ 9   2/120/ 9
CAPE LOOKOUT NC  2300   84     200/ 10/ 13 1014.7F
BUOY 41002       2250   83 86  120/  6/  8 1016.0S   3/ 9   3/100/ 9
BUOY 41010       2220   85 88   40/  2/  4 1016.3F
ST AUGUSTINE FL  2300   85 89  150/ 12/ 14 1016.5S


$$




USA.gov is the U.S. government's official web portal to all federal, state and local government web resources and services.